Caldwell, NJ

9:40 PM EDT on October 22, 2017 (GMT -0400)
Essex County

Weather History for KCDW - November, 2011

Change the Weather History Date:

Tuesday, November 1, 2011

  Actual Average Record
Temperature  
Mean Temperature 46 °F -  
Max Temperature 55 °F 57 °F 81 °F (1950)
Min Temperature 35 °F 37 °F 26 °F (1954)
Degree Days  
Heating Degree Days 20    
Moisture  
Dew Point 35 °F    
Average Humidity 76    
Maximum Humidity 100    
Minimum Humidity 37    
Precipitation  
Precipitation 0.00 in - - ()
Sea Level Pressure  
Sea Level Pressure 30.34 in    
Wind  
Wind Speed 3 mph (NE)    
Max Wind Speed 9 mph    
Max Gust Speed -    
Visibility 9 miles    
Events      
Averages and records for this station are not official NWS values.
T = Trace of Precipitation, MM = Missing Value Source: NWS Daily Summary

Daily Weather History Graph

Daily Weather History Graph

Search for Another Location

Airport or City:

Trip Planner

Search our weather history database for the weather conditions in past years. The results will help you decide how hot, cold, wet, or windy it might be!

Date:

Astronomy

Nov. 01, 2011 Rise Set
Actual Time 7:27 AM EDT 5:53 PM EDT
Civil Twilight 6:58 AM EDT 6:21 PM EDT
Nautical Twilight 6:26 AM EDT 6:54 PM EDT
Astronomical Twilight 5:54 AM EDT 7:26 PM EDT
Moon 1:12 PM EDT (11/1) 11:32 PM EDT (11/1)
Length of Visible Light 11h 23m
Length of Day
10h 26m
Waxing Crescent, 39% of the Moon is Illuminated
Nov 1
Waxing Crescent
Nov 2
First Quarter
Nov 10
Full
Nov 18
Last Quarter
Nov 25
New

Hourly Weather History & Observations

Time (EDT) Temp. Windchill Dew Point Humidity Pressure Visibility Wind Dir Wind Speed Gust Speed Precip Events Conditions
1:53 AM 37.0 °F - 36.0 °F 96% 30.33 in 7.0 mi Calm Calm - N/A   Clear
2:53 AM 37.0 °F 33.3 °F 36.0 °F 96% 30.33 in 7.0 mi NNW 4.6 mph - N/A   Clear
3:53 AM 37.0 °F 33.3 °F 37.0 °F 100% 30.32 in 7.0 mi NNW 4.6 mph - N/A   Clear
4:53 AM 37.9 °F 34.4 °F 37.0 °F 97% 30.32 in 7.0 mi NNW 4.6 mph - N/A   Clear
5:53 AM 36.0 °F - 36.0 °F 100% 30.32 in 6.0 mi Calm Calm - N/A   Clear
6:53 AM 36.0 °F 33.3 °F 36.0 °F 100% 30.31 in 7.0 mi ENE 3.5 mph - N/A   Clear
7:53 AM 37.9 °F - 36.0 °F 93% 30.34 in 9.0 mi Calm Calm - N/A   Clear
8:53 AM 42.1 °F 40.2 °F 37.0 °F 82% 30.34 in 10.0 mi NE 3.5 mph - N/A   Clear
9:53 AM 46.9 °F - 37.0 °F 68% 30.35 in 10.0 mi Variable 3.5 mph - N/A   Clear
10:53 AM 48.9 °F - 36.0 °F 61% 30.35 in 10.0 mi ENE 9.2 mph - N/A   Clear
11:53 AM 50.0 °F - 36.0 °F 59% 30.36 in 10.0 mi East 9.2 mph - N/A   Clear
12:53 PM 52.0 °F - 36.0 °F 54% 30.34 in 10.0 mi ENE 9.2 mph - N/A   Clear
1:53 PM 54.0 °F - 35.1 °F 49% 30.32 in 10.0 mi Variable 4.6 mph - N/A   Clear
2:53 PM 55.0 °F - 28.9 °F 37% 30.32 in 10.0 mi Variable 4.6 mph - N/A   Clear
3:53 PM 55.0 °F - 32.0 °F 42% 30.32 in 10.0 mi ENE 5.8 mph - N/A   Clear
4:53 PM 55.0 °F - 33.1 °F 43% 30.33 in 10.0 mi Variable 4.6 mph - N/A   Clear
5:53 PM 51.1 °F - 32.0 °F 48% 30.34 in 10.0 mi Calm Calm - N/A   Clear
6:53 PM 45.0 °F - 36.0 °F 71% 30.36 in 10.0 mi Calm Calm - N/A   Clear
7:53 PM 41.0 °F - 36.0 °F 82% 30.37 in 10.0 mi Calm Calm - N/A   Clear
8:53 PM 39.0 °F - 36.0 °F 89% 30.38 in 10.0 mi Calm Calm - N/A   Clear
9:53 PM 37.0 °F - 35.1 °F 93% 30.38 in 10.0 mi Calm Calm - N/A   Clear
10:53 PM 36.0 °F - 34.0 °F 93% 30.39 in 10.0 mi Calm Calm - N/A   Clear
11:53 PM 35.1 °F - 34.0 °F 96% 30.38 in 8.0 mi Calm Calm - N/A   Clear